User: anonymous   Login
Location: Bruderhein
(53.8035°N, 112.9265°W)
Time: 19:47:47
(UTC+00:00)
Language:

First-Move - Orbit

View from above orbital plane
View from above orbital plane
View from above satellite
View from above satellite

Ground track
Ground track

The orbit data is extracted from the following two-line orbital elements,

1 39439U 13066Z   24165.47395637  .00011247  00000-0  88856-3 0  9999
2 39439  97.7230 129.0640 0046705 146.9928 213.4226 14.99969956570325
Epoch (UTC): 13 June 2024 11:22:29
Eccentricity: 0.0046705
inclination: 97.7230°
perigee height: 534 km
apogee height: 599 km
right ascension of ascending node: 129.0640°
argument of perigee: 146.9928°
revolutions per day: 14.99969956
mean anomaly at epoch: 213.4226°
orbit number at epoch: 57032

The dashed part of the orbit path shows where the satellite is in the earth's shadow,  

DLR